EW8790 Weather Reports


Display with metric or nautical units.
time (UTC)temp
F
wind
direction
speed
MPH
gust
MPH
rain 1hr
in
rain 24hr
in
rain mn
in
humidity
%
barometer
mb
20190921125022 71 162 4.0 8.0 0.00 0.09 0.09 99 1012.3
20190921124025 70 201 3.0 5.0 0.00 0.09 0.09 99 1012.4
20190921123027 70 172 3.0 7.0 0.00 0.09 0.09 99 1012.5
20190921122030 70 141 3.0 5.0 0.00 0.09 0.09 99 1012.5
20190921121033 70 170 3.0 5.0 0.00 0.09 0.09 99 1012.3
20190921120017 70 161 4.0 6.0 0.00 0.09 0.09 99 1012.3
20190921115019 70 186 3.0 5.0 0.00 0.09 0.09 99 1012.3
20190921114022 70 168 2.0 6.0 0.00 0.09 0.09 99 1012.0
20190921113024 70 194 2.0 5.0 0.00 0.09 0.09 99 1012.1
20190921112027 70 149 4.0 6.0 0.00 0.09 0.09 99 1012.2
20190921111025 70 136 3.0 5.0 0.00 0.09 0.09 99 1012.2
20190921110021 70 155 4.0 8.0 0.00 0.09 0.09 99 1012.3
20190921105017 70 156 3.0 5.0 0.00 0.09 0.09 99 1012.3
20190921104032 70 165 4.0 6.0 0.00 0.09 0.09 99 1012.3
20190921103017 70 170 3.0 5.0 0.01 0.09 0.09 99 1012.5
20190921102020 70 136 3.0 5.0 0.06 0.09 0.09 99 1012.6
20190921101022 70 176 3.0 5.0 0.08 0.09 0.09 99 1012.7
20190921100025 70 162 3.0 5.0 0.09 0.09 0.09 99 1012.9
20190921095027 70 161 2.0 5.0 0.09 0.09 0.09 99 1013.0
20190921094030 70 160 4.0 8.0 0.09 0.09 0.09 99 1013.4
20190921093032 71 183 5.0 9.0 0.08 0.08 0.08 99 1013.5
20190921092018 72 225 6.0 9.0 0.03 0.03 0.03 99 1013.5
20190921091020 73 156 5.0 9.0 0.01 0.01 0.01 99 1013.3
20190921090023 74 202 3.0 5.0 0.00 0.00 0.00 99 1013.5
20190921085025 74 151 3.0 8.0 0.00 0.00 0.00 99 1013.5
20190921084028 74 159 4.0 9.0 0.00 0.00 0.00 99 1013.7
20190921083030 74 137 3.0 5.0 0.00 0.00 0.00 99 1013.8
20190921082027 74 154 4.0 7.0 0.00 0.00 0.00 99 1014.0
20190921081024 73 136 3.0 7.0 0.00 0.00 0.00 99 1014.2
20190921080021 73 164 3.0 6.0 0.00 0.00 0.00 99 1014.3
20190921075018 73 119 3.0 5.0 0.00 0.00 0.00 99 1014.5
20190921074032 73 155 3.0 5.0 0.00 0.00 0.00 99 1014.6
20190921073017 73 162 3.0 8.0 0.00 0.00 0.00 99 1014.7
20190921072019 73 155 4.0 6.0 0.00 0.00 0.00 99 1014.7
20190921071022 73 160 3.0 4.0 0.00 0.00 0.00 99 1014.8
20190921070025 73 170 4.0 7.0 0.00 0.00 0.00 99 1015.0
20190921065027 73 150 2.0 7.0 0.00 0.00 0.00 99 1014.9
20190921064031 73 149 3.0 6.0 0.00 0.00 0.00 99 1014.9
20190921063033 74 171 3.0 6.0 0.00 0.00 0.00 99 1014.9
20190921062030 74 187 4.0 6.0 0.00 0.00 0.00 99 1014.9
20190921061032 74 164 4.0 6.0 0.00 0.00 0.00 99 1014.8
20190921060017 74 182 3.0 6.0 0.00 0.00 0.00 99 1014.8
20190921055020 74 177 4.0 6.0 0.00 0.00 0.00 99 1014.9
20190921054022 74 164 5.0 7.0 0.00 0.00 0.00 99 1014.9
20190921053024 74 153 4.0 6.0 0.00 0.00 0.00 99 1015.0
20190921052027 75 161 4.0 5.0 0.00 0.00 0.00 99 1015.1
20190921051025 75 148 4.0 6.0 0.00 0.00 0.00 99 1015.2
20190921050022 75 170 4.0 5.0 0.00 0.00 0.00 99 1015.2
20190921045018 75 165 5.0 7.0 0.00 0.00 0.00 99 1015.4
20190921044027 75 149 5.0 8.0 0.00 0.00 0.00 99 1015.4
20190921043030 75 181 4.0 6.0 0.00 0.00 0.00 99 1015.5
20190921042032 75 154 5.0 8.0 0.00 0.00 0.00 99 1015.6
20190921041017 75 152 4.0 6.0 0.00 0.00 0.00 99 1015.6
20190921040020 75 152 2.0 5.0 0.00 0.00 0.00 99 1015.6
20190921035022 75 156 4.0 7.0 0.00 0.00 0.00 99 1015.9
20190921034025 75 162 4.0 7.0 0.00 0.00 0.00 99 1015.9
20190921033022 75 126 4.0 7.0 0.00 0.00 0.00 99 1015.9
20190921032025 76 146 4.0 6.0 0.00 0.00 0.00 99 1015.9
20190921031028 76 150 3.0 5.0 0.00 0.00 0.00 99 1015.9
20190921030030 76 147 4.0 8.0 0.00 0.00 0.00 99 1015.9
20190921025033 76 168 4.0 6.0 0.00 0.00 0.00 99 1015.9
20190921024017 76 158 4.0 5.0 0.00 0.00 0.00 99 1016.0
20190921023020 77 176 4.0 6.0 0.00 0.00 0.00 99 1016.1
20190921022022 77 152 4.0 6.0 0.00 0.00 0.00 99 1016.0
20190921021025 77 165 4.0 8.0 0.00 0.00 0.00 99 1015.9
20190921020022 77 145 3.0 6.0 0.00 0.00 0.00 99 1015.9
20190921015019 77 181 4.0 7.0 0.00 0.00 0.00 99 1016.1
20190921014017 78 161 4.0 7.0 0.00 0.00 0.00 99 1016.1
20190921013019 78 136 4.0 9.0 0.00 0.00 0.00 99 1016.1
20190921012022 78 161 5.0 7.0 0.00 0.00 0.00 99 1016.1
20190921011025 78 149 4.0 8.0 0.00 0.00 0.00 99 1016.1
20190921010027 79 157 4.0 6.0 0.00 0.00 0.00 99 1016.3
20190921005032 79 140 3.0 6.0 0.00 0.00 0.00 99 1016.1
20190921004032 79 163 3.0 5.0 0.00 0.00 0.00 99 1016.1
20190921003017 79 167 4.0 5.0 0.00 0.00 0.00 99 1016.2
20190921002033 80 171 3.0 5.0 0.00 0.00 0.00 99 1016.4
20190921001019 80 163 3.0 5.0 0.00 0.00 0.00 99 1016.5
20190921000020 81 176 3.0 5.0 0.00 0.00 0.00 99 1016.5
20190920235022 81 149 2.0 4.0 0.00 0.00 0.00 99 1016.6
20190920234020 82 166 3.0 6.0 0.00 0.00 0.00 99 1016.6
20190920233022 82 166 3.0 5.0 0.00 0.00 0.00 99 1016.6
20190920232025 82 153 3.0 5.0 0.00 0.00 0.00 99 1016.6
20190920231027 83 179 3.0 5.0 0.00 0.00 0.00 99 1016.6
20190920230023 83 176 2.0 4.0 0.00 0.00 0.00 99 1016.6
20190920225020 83 148 3.0 5.0 0.00 0.00 0.00 99 1016.9
20190920224016 83 184 3.0 6.0 0.00 0.00 0.00 99 1016.8
20190920223032 84 164 4.0 8.0 0.00 0.00 0.00 99 1016.9
20190920222016 84 153 4.0 7.0 0.00 0.00 0.00 99 1016.9
20190920221019 84 148 4.0 8.0 0.00 0.00 0.00 99 1017.0
20190920220021 84 175 5.0 7.0 0.00 0.00 0.00 99 1017.0
20190920215024 85 157 4.0 6.0 0.00 0.00 0.00 99 1017.1
20190920214027 85 166 5.0 8.0 0.00 0.00 0.00 99 1017.1
20190920213029 85 176 4.0 6.0 0.00 0.00 0.00 99 1017.2
20190920212032 85 161 4.0 8.0 0.00 0.00 0.00 99 1017.3
20190920211016 86 148 3.0 5.0 0.00 0.00 0.00 99 1017.4
20190920210019 85 175 5.0 7.0 0.00 0.00 0.00 99 1017.4
20190920205023 86 174 4.0 6.0 0.00 0.00 0.00 99 1017.3
20190920204025 85 150 3.0 5.0 0.00 0.00 0.00 99 1017.3
20190920203028 85 166 4.0 6.0 0.00 0.00 0.00 99 1017.3
20190920202031 84 174 4.0 5.0 0.00 0.00 0.00 99 1017.3
20190920201027 85 160 4.0 6.0 0.00 0.00 0.00 99 1017.4
20190920200017 85 138 3.0 5.0 0.00 0.00 0.00 99 1017.5
20190920195020 84 142 4.0 6.0 0.00 0.00 0.00 99 1017.4
20190920194017 85 149 4.0 6.0 0.00 0.00 0.00 99 1017.5
20190920193025 85 116 5.0 7.0 0.00 0.00 0.00 99 1017.5
20190920192028 85 178 5.0 9.0 0.00 0.00 0.00 99 1017.5
20190920191031 85 154 3.0 6.0 0.00 0.00 0.00 99 1017.6
20190920190015 85 174 5.0 7.0 0.00 0.00 0.00 99 1017.6
20190920185019 84 136 4.0 6.0 0.00 0.00 0.00 99 1017.7
20190920184016 83 114 4.0 5.0 0.00 0.00 0.00 99 1017.8
20190920183018 84 147 3.0 6.0 0.00 0.00 0.00 99 1017.9
20190920182016 84 151 4.0 7.0 0.00 0.00 0.00 99 1018.0
20190920181019 83 152 4.0 8.0 0.00 0.00 0.00 99 1018.1
20190920180021 83 145 2.0 4.0 0.00 0.00 0.00 99 1018.3
20190920175025 82 152 4.0 7.0 0.00 0.00 0.00 99 1018.4
20190920174023 82 174 4.0 6.0 0.00 0.00 0.00 99 1018.5
20190920173027 81 187 5.0 7.0 0.00 0.00 0.00 99 1018.5
20190920172030 82 146 4.0 7.0 0.00 0.00 0.00 99 1018.5
20190920171015 81 113 5.0 8.0 0.00 0.00 0.00 99 1018.7
20190920170022 81 144 5.0 7.0 0.00 0.00 0.00 99 1019.0
20190920165027 80 154 4.0 7.0 0.00 0.00 0.00 99 1019.2
20190920164024 80 142 4.0 7.0 0.00 0.00 0.00 99 1019.2
20190920163021 80 155 5.0 7.0 0.00 0.00 0.00 99 1019.3
20190920162018 79 159 4.0 7.0 0.00 0.00 0.00 99 1019.3
20190920161026 78 167 5.0 8.0 0.00 0.00 0.00 99 1019.3
20190920160029 78 166 4.0 6.0 0.00 0.00 0.00 99 1019.5
20190920155027 75 152 5.0 9.0 0.00 0.00 0.00 99 1019.5
20190920154029 75 143 3.0 6.0 0.00 0.00 0.00 99 1019.7
20190920153028 75 146 5.0 7.0 0.00 0.00 0.00 99 1019.7
20190920152025 76 166 4.0 6.0 0.00 0.00 0.00 99 1019.7
20190920151023 75 157 3.0 5.0 0.00 0.00 0.00 99 1019.9
20190920150020 75 146 4.0 7.0 0.00 0.00 0.00 99 1019.9
20190920145019 75 149 6.0 10.0 0.00 0.00 0.00 99 1020.0
20190920144021 74 182 4.0 7.0 0.00 0.00 0.00 99 1019.9
20190920143024 73 154 4.0 8.0 0.00 0.00 0.00 99 1019.9
20190920142021 72 132 4.0 5.0 0.00 0.00 0.00 99 1020.1
20190920141024 71 177 4.0 6.0 0.00 0.00 0.00 99 1020.0
20190920140022 71 155 2.0 5.0 0.00 0.00 0.00 99 1020.1
20190920135025 70 124 3.0 6.0 0.00 0.00 0.00 99 1020.2
20190920134022 69 153 3.0 5.0 0.00 0.00 0.00 99 1020.4
20190920133024 68 146 3.0 4.0 0.00 0.00 0.00 99 1020.6
20190920132027 68 160 2.0 4.0 0.00 0.00 0.00 99 1020.7
20190920131024 67 173 2.0 3.0 0.00 0.00 0.00 99 1020.4
20190920130020 66 144 2.0 5.0 0.00 0.00 0.00 99 1020.2